| time (UTC) | temp F | wind direction | speed MPH | gust MPH | rain 1hr in | rain 24hr in | rain mn in | humidity % | barometer mb |
| 20260507210502 | 46 | 327 | 4.0 | 6.0 | 0.00 | 0.00 | 0.00 | 54 | 1016.4 |
| 20260507210002 | 48 | 290 | 8.0 | 10.0 | 0.00 | 0.00 | 0.00 | 53 | 1016.6 |
| 20260507205502 | 48 | 286 | 10.0 | 12.0 | 0.00 | 0.00 | 0.00 | 54 | 1016.7 |
| 20260507203502 | 46 | 293 | 10.0 | 11.0 | 0.00 | 0.00 | 0.00 | 56 | 1016.4 |
| 20260507203002 | 47 | 288 | 9.0 | 10.0 | 0.00 | 0.00 | 0.00 | 58 | 1016.6 |
| 20260507202002 | 46 | 281 | 9.0 | 11.0 | 0.00 | 0.00 | 0.00 | 57 | 1016.5 |
| 20260507201502 | 46 | 270 | 11.0 | 13.0 | 0.00 | 0.00 | 0.00 | 57 | 1016.7 |
| 20260507201002 | 47 | 268 | 8.0 | 10.0 | 0.00 | 0.00 | 0.00 | 58 | 1016.6 |
| 20260507200501 | 47 | 267 | 9.0 | 13.0 | 0.00 | 0.00 | 0.00 | 58 | 1016.6 |
| 20260507200002 | 47 | 297 | 5.0 | 9.0 | 0.00 | 0.00 | 0.00 | 57 | 1016.6 |
| 20260507195501 | 46 | 303 | 9.0 | 11.0 | 0.00 | 0.00 | 0.00 | 57 | 1016.6 |
| 20260507195002 | 46 | 308 | 4.0 | 6.0 | 0.00 | 0.00 | 0.00 | 59 | 1016.6 |
| 20260507194501 | 47 | 344 | 5.0 | 6.0 | 0.00 | 0.00 | 0.00 | 59 | 1016.7 |
| 20260507194002 | 47 | 251 | 5.0 | 9.0 | 0.00 | 0.00 | 0.00 | 58 | 1016.8 |
| 20260507193502 | 46 | 335 | 4.0 | 5.0 | 0.00 | 0.00 | 0.00 | 59 | 1017.0 |
| 20260507193002 | 46 | 287 | 15.0 | 16.0 | 0.00 | 0.00 | 0.00 | 60 | 1017.1 |
| 20260507192002 | 46 | 325 | 4.0 | 6.0 | 0.00 | 0.00 | 0.00 | 59 | 1017.0 |
| 20260507191502 | 46 | 270 | 11.0 | 12.0 | 0.00 | 0.00 | 0.00 | 61 | 1017.1 |
| 20260507191001 | 46 | 270 | 11.0 | 13.0 | 0.00 | 0.00 | 0.00 | 59 | 1017.2 |
| 20260507185502 | 45 | 255 | 11.0 | 14.0 | 0.00 | 0.00 | 0.00 | 62 | 1017.3 |
| 20260507184502 | 45 | 299 | 10.0 | 11.0 | 0.00 | 0.00 | 0.00 | 61 | 1017.1 |
| 20260507183502 | 45 | 279 | 11.0 | 12.0 | 0.00 | 0.00 | 0.00 | 61 | 1017.4 |
| 20260507183001 | 46 | 290 | 6.0 | 9.0 | 0.00 | 0.00 | 0.00 | 61 | 1017.1 |
| 20260507182002 | 45 | 276 | 7.0 | 9.0 | 0.00 | 0.00 | 0.00 | 62 | 1017.3 |
| 20260507181502 | 46 | 277 | 17.0 | 18.0 | 0.00 | 0.00 | 0.00 | 59 | 1017.3 |
| 20260507180002 | 45 | 252 | 13.0 | 14.0 | 0.00 | 0.00 | 0.00 | 65 | 1017.6 |
| 20260507175501 | 44 | 283 | 9.0 | 11.0 | 0.00 | 0.00 | 0.00 | 63 | 1017.6 |
| 20260507174501 | 45 | 293 | 10.0 | 12.0 | 0.00 | 0.00 | 0.00 | 64 | 1017.6 |
| 20260507174002 | 44 | 291 | 8.0 | 9.0 | 0.00 | 0.00 | 0.00 | 66 | 1017.6 |
| 20260507173501 | 44 | 302 | 12.0 | 14.0 | 0.00 | 0.00 | 0.00 | 67 | 1017.7 |
| 20260507172501 | 45 | 281 | 6.0 | 7.0 | 0.00 | 0.00 | 0.00 | 64 | 1018.2 |
| 20260507171502 | 44 | 297 | 6.0 | 11.0 | 0.00 | 0.00 | 0.00 | 63 | 1018.2 |
| 20260507171002 | 45 | 349 | 6.0 | 9.0 | 0.00 | 0.00 | 0.00 | 66 | 1018.2 |
| 20260507170502 | 44 | 343 | 5.0 | 9.0 | 0.00 | 0.00 | 0.00 | 64 | 1018.3 |
| 20260507170001 | 44 | 316 | 12.0 | 14.0 | 0.00 | 0.00 | 0.00 | 63 | 1018.6 |
| 20260507165502 | 44 | 299 | 5.0 | 7.0 | 0.00 | 0.00 | 0.00 | 67 | 1018.4 |
| 20260507163502 | 44 | 322 | 10.0 | 13.0 | 0.00 | 0.00 | 0.00 | 67 | 1018.5 |
| 20260507161501 | 44 | 310 | 5.0 | 5.0 | 0.00 | 0.00 | 0.00 | 67 | 1018.6 |
| 20260507161002 | 44 | 258 | 8.0 | 9.0 | 0.00 | 0.00 | 0.00 | 69 | 1018.8 |
| 20260507155502 | 44 | 244 | 7.0 | 10.0 | 0.00 | 0.00 | 0.00 | 69 | 1018.9 |
| 20260507154502 | 44 | 322 | 7.0 | 10.0 | 0.00 | 0.00 | 0.00 | 68 | 1018.8 |
| 20260507154001 | 44 | 287 | 9.0 | 13.0 | 0.00 | 0.00 | 0.00 | 70 | 1018.9 |
| 20260507153002 | 43 | 304 | 8.0 | 10.0 | 0.00 | 0.00 | 0.00 | 71 | 1019.1 |
| 20260507152002 | 43 | 283 | 6.0 | 7.0 | 0.00 | 0.00 | 0.00 | 72 | 1019.2 |
| 20260507151502 | 43 | 289 | 9.0 | 10.0 | 0.00 | 0.00 | 0.00 | 71 | 1019.0 |
| 20260507151002 | 43 | 245 | 10.0 | 12.0 | 0.00 | 0.00 | 0.00 | 72 | 1018.9 |
| 20260507150501 | 43 | 240 | 9.0 | 10.0 | 0.00 | 0.00 | 0.00 | 72 | 1019.2 |
| 20260507150003 | 42 | 265 | 8.0 | 9.0 | 0.00 | 0.00 | 0.00 | 73 | 1019.2 |
| 20260507145502 | 42 | 269 | 8.0 | 9.0 | 0.00 | 0.00 | 0.00 | 72 | 1019.4 |
| 20260507145002 | 43 | 288 | 8.0 | 9.0 | 0.00 | 0.00 | 0.00 | 72 | 1019.4 |
| 20260507144502 | 42 | 256 | 8.0 | 9.0 | 0.00 | 0.00 | 0.00 | 72 | 1019.4 |
| 20260507144002 | 42 | 296 | 3.0 | 5.0 | 0.00 | 0.00 | 0.00 | 73 | 1019.3 |
| 20260507143502 | 42 | 296 | 8.0 | 9.0 | 0.00 | 0.00 | 0.00 | 73 | 1019.4 |
| 20260507143001 | 42 | 275 | 7.0 | 7.0 | 0.00 | 0.00 | 0.00 | 73 | 1019.4 |
| 20260507142502 | 42 | 274 | 3.0 | 5.0 | 0.00 | 0.00 | 0.00 | 75 | 1019.5 |
| 20260507142002 | 41 | 252 | 6.0 | 6.0 | 0.00 | 0.00 | 0.00 | 76 | 1019.4 |
| 20260507141002 | 41 | 257 | 4.0 | 6.0 | 0.00 | 0.00 | 0.00 | 77 | 1019.6 |
| 20260507140502 | 41 | 275 | 4.0 | 5.0 | 0.00 | 0.00 | 0.00 | 74 | 1019.6 |
| 20260507140002 | 41 | 271 | 4.0 | 5.0 | 0.00 | 0.00 | 0.00 | 76 | 1019.7 |
| 20260507135502 | 41 | 238 | 6.0 | 6.0 | 0.00 | 0.00 | 0.00 | 80 | 1019.6 |
| 20260507134001 | 40 | 286 | 5.0 | 5.0 | 0.00 | 0.00 | 0.00 | 80 | 1019.7 |
| 20260507133001 | 40 | 283 | 4.0 | 4.0 | 0.00 | 0.00 | 0.00 | 80 | 1019.7 |
| 20260507131002 | 39 | 278 | 2.0 | 3.0 | 0.00 | 0.00 | 0.00 | 81 | 1019.8 |
| 20260507124501 | 38 | 321 | 2.0 | 2.0 | 0.00 | 0.00 | 0.00 | 86 | 1020.0 |
| 20260507122501 | 37 | 172 | 0.0 | 0.0 | 0.00 | 0.00 | 0.00 | 89 | 1020.0 |
| 20260507122002 | 36 | 191 | 0.0 | 0.0 | 0.00 | 0.00 | 0.00 | 89 | 1019.9 |
| 20260507121502 | 36 | 179 | 0.0 | 0.0 | 0.00 | 0.00 | 0.00 | 89 | 1020.0 |
| 20260507121001 | 35 | 194 | 0.0 | 0.0 | 0.00 | 0.00 | 0.00 | 90 | 1020.1 |
| 20260507120001 | 35 | 152 | 1.0 | 2.0 | 0.00 | 0.00 | 0.00 | 89 | 1020.0 |
| 20260507114502 | 34 | 149 | 0.0 | 0.0 | 0.00 | 0.00 | 0.00 | 91 | 1019.9 |
| 20260507114001 | 33 | 153 | 0.0 | 0.0 | 0.00 | 0.00 | 0.00 | 92 | 1020.1 |
| 20260507113502 | 32 | 154 | 0.0 | 0.0 | 0.00 | 0.00 | 0.00 | 93 | 1020.0 |
| 20260507112002 | 30 | 150 | 0.0 | 0.0 | 0.00 | 0.00 | 0.00 | 97 | 1020.2 |
| 20260507111002 | 30 | 143 | 1.0 | 2.0 | 0.00 | 0.00 | 0.00 | 98 | 1020.1 |
| 20260507110502 | 29 | 150 | 0.0 | 0.0 | 0.00 | 0.00 | 0.00 | 98 | 1020.2 |
| 20260507110002 | 29 | 138 | 0.0 | 0.0 | 0.00 | 0.00 | 0.00 | 98 | 1020.2 |
| 20260507105002 | 28 | 91 | 0.0 | 0.0 | 0.00 | 0.00 | 0.00 | 98 | 1020.0 |
| 20260507103502 | 28 | 114 | 0.0 | 0.0 | 0.00 | 0.00 | 0.00 | 97 | 1019.8 |
| 20260507103001 | 28 | 108 | 0.0 | 0.0 | 0.00 | 0.00 | 0.00 | 97 | 1020.1 |
| 20260507102502 | 28 | 140 | 0.0 | 0.0 | 0.00 | 0.00 | 0.00 | 97 | 1020.0 |
| 20260507102001 | 28 | 91 | 1.0 | 2.0 | 0.00 | 0.00 | 0.00 | 97 | 1019.9 |
| 20260507101502 | 28 | 137 | 1.0 | 2.0 | 0.00 | 0.00 | 0.00 | 97 | 1019.9 |
| 20260507101002 | 28 | 85 | 1.0 | 2.0 | 0.00 | 0.00 | 0.00 | 97 | 1020.1 |
| 20260507100501 | 28 | 92 | 1.0 | 2.0 | 0.00 | 0.00 | 0.00 | 97 | 1019.9 |
| 20260507100002 | 28 | 114 | 1.0 | 2.0 | 0.00 | 0.00 | 0.00 | 97 | 1019.8 |
| 20260507093502 | 29 | 145 | 0.0 | 0.0 | 0.00 | 0.00 | 0.00 | 96 | 1019.8 |
| 20260507093001 | 29 | 144 | 0.0 | 0.0 | 0.00 | 0.00 | 0.00 | 96 | 1020.1 |
| 20260507092001 | 29 | 144 | 0.0 | 0.0 | 0.00 | 0.00 | 0.00 | 96 | 1020.1 |
| 20260507090501 | 29 | 110 | 1.0 | 2.0 | 0.00 | 0.00 | 0.00 | 97 | 1020.2 |
| 20260507085501 | 29 | 142 | 0.0 | 0.0 | 0.00 | 0.00 | 0.00 | 97 | 1020.5 |
| 20260507085002 | 29 | 122 | 0.0 | 0.0 | 0.00 | 0.00 | 0.00 | 97 | 1020.2 |
| 20260507084002 | 28 | 144 | 0.0 | 0.0 | 0.00 | 0.00 | 0.00 | 97 | 1020.2 |
| 20260507083001 | 28 | 150 | 0.0 | 0.0 | 0.00 | 0.00 | 0.00 | 97 | 1020.0 |
| 20260507082502 | 28 | 121 | 0.0 | 0.0 | 0.00 | 0.00 | 0.00 | 96 | 1020.2 |
| 20260507082001 | 28 | 114 | 0.0 | 0.0 | 0.00 | 0.00 | 0.00 | 96 | 1020.1 |
| 20260507081502 | 28 | 143 | 0.0 | 0.0 | 0.00 | 0.00 | 0.00 | 96 | 1020.2 |
| 20260507081001 | 28 | 111 | 0.0 | 0.0 | 0.00 | 0.00 | 0.00 | 96 | 1020.2 |
| 20260507080002 | 28 | 115 | 0.0 | 0.0 | 0.00 | 0.00 | 0.00 | 96 | 1020.1 |
| 20260507075501 | 28 | 110 | 0.0 | 0.0 | 0.00 | 0.00 | 0.00 | 95 | 1020.4 |
| 20260507074501 | 28 | 134 | 0.0 | 0.0 | 0.00 | 0.00 | 0.00 | 95 | 1020.3 |
| 20260507073501 | 28 | 127 | 0.0 | 0.0 | 0.00 | 0.00 | 0.00 | 95 | 1020.2 |
| 20260507073002 | 29 | 126 | 0.0 | 0.0 | 0.00 | 0.00 | 0.00 | 95 | 1020.3 |
| 20260507071501 | 29 | 127 | 0.0 | 0.0 | 0.00 | 0.00 | 0.00 | 95 | 1020.5 |
| 20260507071002 | 29 | 113 | 0.0 | 0.0 | 0.00 | 0.00 | 0.00 | 95 | 1020.3 |
| 20260507070502 | 29 | 119 | 1.0 | 2.0 | 0.00 | 0.00 | 0.00 | 95 | 1020.3 |
| 20260507065502 | 29 | 111 | 1.0 | 2.0 | 0.00 | 0.00 | 0.00 | 95 | 1020.6 |
| 20260507065002 | 29 | 68 | 2.0 | 2.0 | 0.00 | 0.00 | 0.00 | 94 | 1020.5 |
| 20260507064502 | 29 | 135 | 0.0 | 0.0 | 0.00 | 0.00 | 0.00 | 94 | 1020.6 |
| 20260507063002 | 29 | 133 | 1.0 | 2.0 | 0.00 | 0.00 | 0.00 | 94 | 1020.6 |
| 20260507062502 | 29 | 138 | 0.0 | 0.0 | 0.00 | 0.00 | 0.00 | 94 | 1020.4 |
| 20260507062001 | 29 | 113 | 1.0 | 2.0 | 0.00 | 0.00 | 0.00 | 94 | 1020.4 |
| 20260507061502 | 29 | 125 | 0.0 | 0.0 | 0.00 | 0.00 | 0.00 | 93 | 1020.2 |
| 20260507060502 | 30 | 49 | 2.0 | 3.0 | 0.00 | 0.00 | 0.00 | 93 | 1020.3 |
| 20260507060001 | 30 | 62 | 2.0 | 3.0 | 0.00 | 0.00 | 0.00 | 93 | 1020.5 |
| 20260507055502 | 30 | 59 | 2.0 | 2.0 | 0.00 | 0.00 | 0.00 | 93 | 1020.4 |
| 20260507055001 | 30 | 55 | 2.0 | 2.0 | 0.00 | 0.00 | 0.00 | 92 | 1020.5 |
| 20260507054502 | 30 | 60 | 2.0 | 2.0 | 0.00 | 0.00 | 0.00 | 92 | 1020.7 |
| 20260507053502 | 30 | 51 | 2.0 | 2.0 | 0.00 | 0.00 | 0.00 | 91 | 1020.3 |
| 20260507053001 | 31 | 47 | 2.0 | 2.0 | 0.00 | 0.00 | 0.00 | 91 | 1020.4 |
| 20260507051502 | 32 | 53 | 2.0 | 3.0 | 0.00 | 0.00 | 0.00 | 89 | 1020.6 |
| 20260507051001 | 32 | 50 | 2.0 | 2.0 | 0.00 | 0.00 | 0.00 | 89 | 1020.4 |
| 20260507050001 | 33 | 100 | 0.0 | 0.0 | 0.00 | 0.00 | 0.00 | 87 | 1020.6 |
| 20260507044001 | 34 | 101 | 1.0 | 2.0 | 0.00 | 0.00 | 0.00 | 85 | 1020.5 |
| 20260507043502 | 34 | 56 | 2.0 | 2.0 | 0.00 | 0.00 | 0.00 | 87 | 1020.3 |
| 20260507042002 | 34 | 77 | 0.0 | 0.0 | 0.00 | 0.00 | 0.00 | 87 | 1020.5 |
| 20260507040501 | 36 | 37 | 0.0 | 0.0 | 0.00 | 0.00 | 0.00 | 85 | 1020.4 |
| 20260507040002 | 36 | 21 | 0.0 | 0.0 | 0.00 | 0.00 | 0.00 | 83 | 1020.1 |
| 20260507035501 | 37 | 244 | 0.0 | 0.0 | 0.00 | 0.00 | 0.00 | 82 | 1020.4 |
| 20260507034501 | 38 | 251 | 1.0 | 2.0 | 0.00 | 0.00 | 0.00 | 78 | 1020.5 |
| 20260507033501 | 39 | 243 | 0.0 | 0.0 | 0.00 | 0.00 | 0.00 | 74 | 1020.3 |
| 20260507033002 | 39 | 328 | 2.0 | 2.0 | 0.00 | 0.00 | 0.00 | 75 | 1020.4 |
| 20260507032502 | 39 | 260 | 0.0 | 0.0 | 0.00 | 0.00 | 0.00 | 75 | 1020.5 |
| 20260507032002 | 40 | 271 | 1.0 | 2.0 | 0.00 | 0.00 | 0.00 | 74 | 1020.4 |
| 20260507031502 | 40 | 282 | 5.0 | 6.0 | 0.00 | 0.00 | 0.00 | 73 | 1020.2 |
| 20260507031002 | 40 | 264 | 5.0 | 5.0 | 0.00 | 0.00 | 0.00 | 72 | 1020.3 |
| 20260507030502 | 40 | 271 | 5.0 | 5.0 | 0.00 | 0.00 | 0.00 | 73 | 1020.1 |
| 20260507025501 | 40 | 286 | 1.0 | 2.0 | 0.00 | 0.00 | 0.00 | 74 | 1020.2 |
| 20260507024501 | 40 | 274 | 2.0 | 2.0 | 0.00 | 0.00 | 0.00 | 74 | 1020.2 |
| 20260507024002 | 40 | 291 | 3.0 | 4.0 | 0.00 | 0.00 | 0.00 | 74 | 1020.0 |
| 20260507023501 | 40 | 240 | 0.0 | 0.0 | 0.00 | 0.00 | 0.00 | 74 | 1020.2 |
| 20260507023002 | 40 | 291 | 1.0 | 2.0 | 0.00 | 0.00 | 0.00 | 73 | 1020.2 |
| 20260507022502 | 40 | 273 | 3.0 | 4.0 | 0.00 | 0.00 | 0.00 | 73 | 1020.1 |
| 20260507022002 | 41 | 270 | 3.0 | 4.0 | 0.00 | 0.00 | 0.00 | 73 | 1020.0 |
| 20260507021502 | 40 | 250 | 4.0 | 5.0 | 0.00 | 0.00 | 0.00 | 71 | 1020.0 |
| 20260507021002 | 40 | 258 | 1.0 | 2.0 | 0.00 | 0.00 | 0.00 | 72 | 1020.0 |
| 20260507020502 | 40 | 243 | 0.0 | 0.0 | 0.00 | 0.00 | 0.00 | 71 | 1020.1 |
| 20260507020002 | 40 | 277 | 2.0 | 2.0 | 0.00 | 0.00 | 0.00 | 72 | 1020.0 |
| 20260507015501 | 40 | 313 | 1.0 | 2.0 | 0.00 | 0.00 | 0.00 | 71 | 1020.1 |
| 20260507015002 | 40 | 308 | 2.0 | 3.0 | 0.00 | 0.00 | 0.00 | 72 | 1020.0 |
| 20260507013001 | 41 | 267 | 4.0 | 5.0 | 0.00 | 0.00 | 0.00 | 73 | 1019.9 |
| 20260507011502 | 41 | 307 | 2.0 | 3.0 | 0.00 | 0.00 | 0.00 | 70 | 1019.6 |
| 20260507011002 | 41 | 344 | 2.0 | 3.0 | 0.00 | 0.00 | 0.00 | 69 | 1019.5 |
| 20260507005502 | 41 | 294 | 4.0 | 5.0 | 0.00 | 0.00 | 0.00 | 67 | 1019.4 |
| 20260507005001 | 41 | 324 | 3.0 | 4.0 | 0.00 | 0.00 | 0.00 | 67 | 1019.3 |
| 20260507004502 | 41 | 252 | 4.0 | 5.0 | 0.00 | 0.00 | 0.00 | 70 | 1019.6 |
| 20260507003001 | 41 | 255 | 6.0 | 6.0 | 0.00 | 0.00 | 0.00 | 66 | 1019.3 |
| 20260507002502 | 41 | 290 | 7.0 | 9.0 | 0.00 | 0.00 | 0.00 | 68 | 1019.4 |
| 20260507002001 | 41 | 284 | 5.0 | 5.0 | 0.00 | 0.00 | 0.00 | 67 | 1019.3 |
| 20260507001001 | 41 | 286 | 6.0 | 7.0 | 0.00 | 0.00 | 0.00 | 65 | 1019.4 |
| 20260507000501 | 41 | 278 | 7.0 | 7.0 | 0.00 | 0.00 | 0.00 | 65 | 1019.4 |
| 20260506235501 | 41 | 298 | 5.0 | 7.0 | 0.00 | 0.00 | 0.00 | 62 | 1019.2 |
| 20260506235002 | 42 | 324 | 6.0 | 7.0 | 0.00 | 0.00 | 0.00 | 63 | 1019.1 |
| 20260506234502 | 41 | 296 | 7.0 | 10.0 | 0.00 | 0.00 | 0.00 | 61 | 1019.1 |
| 20260506234002 | 41 | 303 | 2.0 | 3.0 | 0.00 | 0.00 | 0.00 | 63 | 1019.3 |
| 20260506233501 | 41 | 288 | 5.0 | 6.0 | 0.00 | 0.00 | 0.00 | 63 | 1019.1 |
| 20260506233002 | 41 | 275 | 6.0 | 6.0 | 0.00 | 0.00 | 0.00 | 62 | 1019.3 |
| 20260506232501 | 42 | 282 | 5.0 | 6.0 | 0.00 | 0.00 | 0.00 | 62 | 1019.0 |
| 20260506231501 | 42 | 274 | 6.0 | 7.0 | 0.00 | 0.00 | 0.00 | 66 | 1019.1 |
| 20260506231002 | 42 | 266 | 7.0 | 9.0 | 0.00 | 0.00 | 0.00 | 65 | 1019.1 |
| 20260506225502 | 42 | 264 | 5.0 | 6.0 | 0.00 | 0.00 | 0.00 | 63 | 1019.2 |
| 20260506225002 | 42 | 306 | 3.0 | 4.0 | 0.00 | 0.00 | 0.00 | 62 | 1019.1 |
| 20260506223502 | 42 | 351 | 5.0 | 5.0 | 0.00 | 0.00 | 0.00 | 60 | 1019.2 |
| 20260506223002 | 42 | 317 | 5.0 | 5.0 | 0.00 | 0.00 | 0.00 | 61 | 1019.1 |
| 20260506221502 | 42 | 301 | 5.0 | 6.0 | 0.00 | 0.00 | 0.00 | 63 | 1019.2 |
| 20260506220502 | 42 | 275 | 9.0 | 12.0 | 0.00 | 0.00 | 0.00 | 63 | 1019.2 |
| 20260506220001 | 42 | 291 | 10.0 | 11.0 | 0.00 | 0.00 | 0.00 | 62 | 1019.0 |
| 20260506215502 | 42 | 277 | 9.0 | 10.0 | 0.00 | 0.00 | 0.00 | 63 | 1019.1 |
| 20260506214502 | 42 | 296 | 11.0 | 14.0 | 0.00 | 0.00 | 0.00 | 63 | 1019.0 |
| 20260506214002 | 42 | 285 | 9.0 | 11.0 | 0.00 | 0.00 | 0.00 | 63 | 1019.1 |
| 20260506213502 | 42 | 299 | 9.0 | 10.0 | 0.00 | 0.00 | 0.00 | 59 | 1019.1 |
| 20260506213002 | 42 | 281 | 8.0 | 10.0 | 0.00 | 0.00 | 0.00 | 61 | 1018.9 |
| 20260506212502 | 42 | 267 | 11.0 | 13.0 | 0.00 | 0.00 | 0.00 | 63 | 1018.9 |
| 20260506211501 | 42 | 296 | 9.0 | 10.0 | 0.00 | 0.00 | 0.00 | 60 | 1018.9 |
| 20260506211002 | 42 | 274 | 10.0 | 12.0 | 0.00 | 0.00 | 0.00 | 62 | 1019.0 |